Regional Weather Roundup
Issued by NWS

Home | Current Version | Previous Version | Graphics & Text | Print | Product List | Glossary On
Versions: 1 2 3 4 5 6 7 8 9 10 11 12 13 14 15 16 17 18 19 20 21 22 23 24 25 26 27 28 29 30 31 32 33 34 35 36 37 38 39 40 41 42 43 44 45 46 47 48 49 50
000
ASUS43 KTOP 210059
RWRKS

WEATHER ROUNDUP FOR KANSAS
NATIONAL WEATHER SERVICE GOODLAND KS
800 PM CDT SUN APR 20 2014

NOTE:  "FAIR" INDICATES FEW OR NO CLOUDS BELOW 12,000 FEET WITH NO
SIGNIFICANT WEATHER AND/OR OBSTRUCTIONS TO VISIBILITY.

KSZ001>006-013>018-027>032-041>047-210200-
NORTHWEST KANSAS

CITY           SKY/WX    TMP DP  RH WIND       PRES   REMARKS
GOODLAND       PTCLDY    71  46  40 N7        29.93S
HAYS           CLOUDY    70  54  56 S20G31    29.90F
HILL CITY      TSTM      60  56  86 E13       29.92R
RUSSELL        MOCLDY    69  56  62 SE18      29.90F
$$

KSZ061>065-074>080-084>089-210200-
SOUTHWEST KANSAS

CITY           SKY/WX    TMP DP  RH WIND       PRES   REMARKS
DODGE CITY     MOCLDY    66  54  65 S16       29.92S
ELKHART          N/A     63  48  58 W7          N/A
GARDEN CITY    LGT RAIN  66  52  60 S5        29.90S
GREAT BEND     PTCLDY    68  55  64 S17       29.93R
LIBERAL        CLOUDY    64  45  48 S16       29.95R
$$

KSZ066>073-081>083-090>101-210200-
SOUTHEAST KANSAS

CITY           SKY/WX    TMP DP  RH WIND       PRES   REMARKS
CHANUTE        MOCLDY    67  54  63 S10       30.01F
COFFEYVILLE    CLOUDY    69  54  58 SE7       30.01F HAZE
HUTCHINSON     MOCLDY    69  56  62 S13       29.94F
NEWTON         CLOUDY    68  54  60 S12       29.99F
PARSONS        CLOUDY    69  54  58 CALM      30.02F
WICHITA INTL   CLOUDY    70  55  59 S13       29.96F
WICHITA JABRA  CLOUDY    70  55  59 S14       29.96F
WINFIELD       CLOUDY    68  57  68 S9        30.00S
$$

KSZ007>012-019>026-033>040-048>060-102>105-210200-
NORTHEAST KANSAS

CITY           SKY/WX    TMP DP  RH WIND       PRES   REMARKS
CONCORDIA      CLOUDY    68  53  58 S17       29.94S
EMPORIA        MOCLDY    65  56  72 SE7       29.98S
LAWRENCE       MOCLDY    70  55  59 S6        29.98F
MANHATTAN      CLOUDY    67  59  75 S6        29.96S
OLATHE IND     MOCLDY    68  54  60 S9        30.00F
OLATHE EXE     CLOUDY    68  53  58 S9        29.99F
SALINA         MOCLDY    68  56  65 S15       29.95S
TOPEKA BILLARD CLOUDY    71  56  58 S5        29.98F
TOPEKA FORBES  CLOUDY    68  55  63 S8        29.98F
$$



USA.gov is the U.S. government's official web portal to all federal, state and local government web resources and services.